• Preparing MPCs (Info)

  • MPEC 2013-Y56 : 2013 EO126

    The following Minor Planet Electronic Circular may be linked-to from your own Web pages, but must not otherwise be redistributed electronically.

    A form allowing access to any MPEC is at the bottom of this page.


    Read MPEC 2013-Y55 Read MPEC 2013-Y57


    M.P.E.C. 2013-Y56                                Issued 2013 Dec. 29, 15:14 UT
    
         The Minor Planet Electronic Circulars contain information on unusual
             minor planets and routine data on comets.  They are published
       on behalf of Commission 20 of the International Astronomical Union by the
              Minor Planet Center, Smithsonian Astrophysical Observatory,
                              Cambridge, MA 02138, U.S.A.
    
                 Prepared using the Tamkin Foundation Computer Network
    
                                  MPC@CFA.HARVARD.EDU
                URL http://www.minorplanetcenter.net/    ISSN 1523-6714
    
                                      2013 EO126
    
                               Revision to MPEC 2013-F29
    
    Additional Observations:
         K13EC6O 2C2013 11 26.57535306 44 54.823+18 51 00.41         24.3 RtEY056568
         K13EC6O 2C2013 12 22.48484506 02 00.957+19 16 13.74         23.9 RtEY056568
         K13EC6O 2C2013 12 22.50030606 01 59.396+19 16 14.43         22.8 RtEY056568
         K13EC6O 2C2013 12 22.50446906 01 58.976+19 16 14.62         23.0 RtEY056568
         K13EC6O 2C2013 12 23.51274806 00 19.673+19 17 01.66         23.3 RtEY056568
         K13EC6O 2C2013 12 23.51719406 00 19.232+19 17 01.84         23.2 RtEY056568
         K13EC6O 2C2013 12 23.52166606 00 18.784+19 17 02.11         23.3 RtEY056568
    
    Observer details:
    568 Mauna Kea.  Observers D. J. Tholen, M. C. Kotson, D. Farnocchia,
        J. Bergonio.  Measurer D. J. Tholen.  2.24-m University of Hawaii
        reflector.
    
    First and last observations above in comparison with prediction:
    Residuals in seconds of arc, reference and Delta-T
    131126 568 12.7-  1.0-    131223 568 10.7-  1.7-    MPO266948   -0.0020 day
    
    Orbital elements:
    2013 EO126                                          PHA, Earth MOID = 0.0384 AU
    Epoch 2013 Nov. 4.0 TT = JDT 2456600.5                  MPC
    M  44.22240              (2000.0)            P               Q
    n   0.28436934     Peri.  147.65521     +0.52766697     +0.84915818
    a   2.2902393      Node   154.17211     -0.78985104     +0.50014129
    e   0.7855411      Incl.    2.93594     -0.31257464     +0.16967343
    P   3.47           H   19.9           G   0.15           U   3
    Residuals in seconds of arc
    130315 691  0.4-  0.1+    130401 C73  0.5+  1.0-    130408 673  0.4-  0.1+
    130315 691  0.1-  0.1-    130401 C73  0.3-  0.2+    130408 673  0.6+  0.0
    130315 691  0.2-  0.0     130401 C73  0.2-  0.4+    130409 H45  0.2+  0.3-
    130315 G96  0.3-  0.3+    130401 C73  0.2-  0.2-    130409 H45  0.4+  0.0
    130315 G96  0.1-  0.2+    130401 C73  0.6-  0.7+    130409 H45  0.2-  0.1+
    130315 G96  0.2-  0.3+    130401 C73  0.1+  0.9+    130409 H45  0.0   0.1+
    130315 G96  0.1+  0.2+    130401 C73  0.1-  0.1+    130409 H45  0.1-  0.2-
    130319 F51  0.1+  0.2+    130401 C73  0.1-  0.0     130409 H45  0.3-  0.0
    130319 F51  0.1+  0.1+    130401 C73  0.0   0.6-    130409 H45  0.2-  0.2-
    130319 F51  0.1+  0.2+    130401 C73  0.3-  0.5+    130409 H45  0.2+  0.3-
    130319 A44  0.0   0.1-    130401 C73  0.8-  0.5+    130409 H45  0.0   0.2-
    130319 A44  0.0   0.0     130402 H21  0.4+  0.1+    130409 H45  0.0   0.3-
    130320 A44  0.1-  0.2-    130402 H21  0.4+  0.2+    130410 718  0.1+  0.1+
    130320 807  0.0   0.1-    130402 H21  0.5+  0.2+    130410 718  0.7+  0.6+
    130320 807  0.1+  0.2-    130403 G48  0.0   0.2+    130410 718  0.9+  0.1+
    130320 807  0.2+  0.2-    130403 G48  0.1-  0.2+    130410 718  0.3-  0.2+
    130320 807  0.1+  0.3-    130403 G48  0.2+  0.0     130411 695  0.2-  0.1+
    130320 H21  0.1-  0.1-    130403 G48  0.3+  0.5-    130411 695  0.1-  0.1+
    130320 711 (2.6-  0.4+)   130403 673  0.1+  0.1-    130411 695  0.1-  0.1+
    130320 H21  0.0   0.0     130403 673  0.1+  0.1-    130411 695  0.1-  0.1+
    130320 711 (2.4-  1.1+)   130403 673  0.0   0.1+    130411 291  0.0   0.2+
    130320 H21  0.1+  0.1+    130403 673  0.1+  0.3-    130411 291  0.1-  0.4+
    130320 711 (2.3-  0.2+)   130403 718  0.2+  0.1+    130411 291  0.1+  0.3+
    130320 711  0.0   0.3-    130403 718  0.2-  0.1-    130412 A53  0.7+  0.2-
    130320 711  0.1-  0.0     130403 718  0.0   0.1+    130412 A53  0.4+  0.2-
    130320 711  0.1-  0.1-    130403 673  0.1-  0.0     130412 A53  0.0   0.4+
    130320 711  0.1+  0.0     130403 673  0.7+  0.5-    130412 A53  0.1+  0.3+
    130320 711  0.1+  0.0     130403 673  0.8+  1.0-    130412 A53  0.6+  0.4+
    130320 711  0.1-  0.2-    130403 H21  0.0   0.1-    130413 718  1.2+  0.9+
    130320 711  0.1+  0.3-    130403 H21  0.1+  0.3-    130413 718  0.5+  0.2-
    130320 711  0.1-  0.1-    130403 H21  0.1+  0.2-    130413 718  0.1+  0.8+
    130320 711  0.1-  0.1-    130403 H21  0.1+  0.2-    130413 850 (1.6-  2.6-)
    130320 711  0.1-  0.1-    130403 A48  0.1+  0.3+    130413 850  0.2-  0.2-
    130320 711  0.1-  0.0     130403 A48  0.1-  0.3-    130413 850  0.0   0.1-
    130320 711  0.2-  0.0     130403 A48  0.4-  0.1-    130413 A53  1.0+  0.0
    130320 711  0.0   0.2-    130404 718  1.1+  0.1-    130413 A53  0.3+  0.4+
    130321 204  0.1+  0.1-    130404 718  0.4+  0.1-    130413 A53  0.4+  0.2-
    130321 204  0.1-  0.0     130404 718  0.0   0.0     130413 A53  0.0   0.1-
    130321 204  0.2-  0.2+    130404 F65  0.0   0.2-    130413 A53  0.1-  0.7+
    130322 H21  0.5-  0.2+    130404 F65  0.0   0.0     130414 850  1.3-  0.5-
    130322 H21  0.2-  0.1+    130404 F65  0.0   0.1+    130414 850  0.1-  0.5-
    130322 H21  0.2-  0.2+    130404 F65  0.1+  0.2-    130414 850  0.7-  0.7+
    130322 H21  0.3-  0.1+    130404 F65  0.1+  0.1-    130414 673  0.3+  0.2-
    130322 H21  0.2-  0.1-    130404 F65  0.1+  0.1-    130414 673  0.5+  0.1-
    130322 H21  0.2-  0.2-    130404 300  0.1+  0.0     130414 718  0.2+  0.0
    130322 H21  0.2-  0.1+    130404 300  0.1-  0.1-    130414 718  0.1-  0.1+
    130323 711  0.5-  0.4+    130404 300  0.0   0.1+    130414 718  0.5+  0.4+
    130323 711  1.0-  0.7+    130404 300  0.0   0.0     130414 673  0.2-  0.1+
    130323 711  1.0-  0.5+    130404 300  0.0   0.3-    130414 A81  0.2+  0.1-
    130323 291  0.2+  0.2+    130404 300  0.2+  0.1-    130414 A81  0.1+  0.3+
    130323 291  0.3+  0.1+    130405 I41  0.0   0.0     130414 A81  0.2+  0.3-
    130323 291  0.4+  0.1+    130405 I41  0.3-  0.1+    130414 A24  0.3-  0.0
    130328 H21  0.4+  0.1+    130405 I41  0.2-  0.0     130414 A24  0.5+  0.0
    130328 H21  0.6+  0.3-    130405 C77  0.4+  0.0     130414 A24  0.7-  0.3+
    130328 H21  0.4+  0.6-    130405 C77  0.3+  0.7-    130414 160  0.0   0.3-
    130328 D90  0.1+  0.1-    130405 C77  0.8-  0.5-    130414 160  0.0   0.2-
    130328 D90  0.2-  0.2+    130405 C77  0.1+  0.1-    130414 160  0.1-  0.2-
    130328 D90  0.3-  0.1+    130405 C77  0.1+  0.0     130414 160  0.0   0.4-
    130330 718  0.2-  0.3-    130406 I42  0.4+  1.2+    130414 160  0.1-  0.3-
    130330 718  0.0   0.1+    130406 I42  0.5-  0.4+    130414 B67  0.6-  0.4+
    130330 718  0.4+  0.3-    130406 I15  0.4-  0.2-    130414 B67  0.6-  0.3+
    130330 H21  0.1+  0.1-    130406 I15  0.1+  0.1+    130414 B67  0.4-  0.5+
    130330 H21  0.0   0.1-    130406 I15  0.3-  0.0     130414 B67  0.1+  0.2+
    130330 H21  0.1+  0.1-    130406 850  0.1+  0.1+    130415 H45  0.5-  0.1-
    130331 718  0.3-  0.4+    130406 850  0.1-  0.0     130415 H45  0.3-  0.0
    130331 718  0.1-  0.2-    130406 850  0.3-  0.0     130415 H45  0.6-  0.1+
    130331 718  0.1+  0.1-    130406 850  0.0   0.0     130415 H45  0.1-  0.1-
    130331 300  0.0   0.2+    130406 850  0.1-  0.0     130415 H45  0.6-  0.1+
    130331 300  0.4+  0.4+    130406 850  0.0   0.0     130415 H45  0.3-  0.1+
    130331 300  0.2+  0.2-    130406 703  0.7-  0.1+    130415 H45  0.5-  0.2-
    130331 300  0.0   0.2-    130406 703  0.9-  0.1+    130415 H45  0.1+  0.3-
    130331 300  0.1+  0.3+    130406 703  1.0-  0.2+    130415 H45  0.3-  0.1-
    130331 300  0.2+  0.2-    130406 703  0.2-  0.2+    130415 H45  0.2-  0.0
    130331 300  0.0   0.2-    130406 I76  0.4+  1.4+    130415 233 (1.9-  0.2-)
    130401 703  0.1+  0.1-    130406 I76  0.0   0.5-    130415 233  0.4+  0.5-
    130401 703  0.4-  0.2+    130406 I76  0.3+  0.5-    130415 233  1.3+  1.0-
    130401 703  0.1-  0.3+    130406 I76  0.4-  0.2-    130415 233  0.7+  0.8-
    130401 H45  0.3+  0.1-    130407 I42  0.1+  0.2-    130415 160  0.1+  0.5-
    130401 703  0.0   0.0     130407 I42  0.3-  0.1-    130415 160  0.1-  0.3+
    130401 H45  0.1-  0.0     130407 I42  0.1+  0.1-    130415 160  0.1-  0.5-
    130401 H45  0.2-  0.0     130407 850  0.3-  0.1-    130415 160  0.1+  0.2-
    130401 H45  0.2+  0.3+    130407 850  0.3-  0.0     130416 160  0.3-  0.4-
    130401 H45  0.2+  0.1-    130407 718  0.1+  0.1-    130416 160  0.4-  0.4+
    130401 H45  0.0   0.0     130407 718  0.1-  0.5-    130416 160 (0.7+  1.6+)
    130401 H45  0.0   0.1-    130407 718  0.2+  0.4-    130417 703  0.1-  0.1+
    130401 H45  0.1-  0.1-    130407 C36  0.2+  0.1+    130417 703  0.5+  0.2+
    130401 691  0.2-  0.0     130407 C36  0.2-  0.0     130417 703  0.0   0.2-
    130401 691  0.0   0.0     130407 C36  0.0   0.7-    131126 568  0.0   0.0
    130401 691  0.2-  0.1+    130407 C36  0.5+  0.5-    131222 568  0.0   0.1-
    130401 C73  0.1-  0.2-    130407 C36  0.2+  0.5-    131222 568  0.0   0.1-
    130401 C73  0.2-  0.1-    130407 C36  0.3+  0.2-    131222 568  0.0   0.1-
    130401 C73  0.0   0.1-    130407 C36  0.1-  0.1+    131223 568  0.0   0.0
    130401 C73 (0.0   1.9-)   130407 C36  0.4+  0.0     131223 568  0.0   0.0
    130401 C73  0.3-  0.1-    130408 673  0.5-  0.1-    131223 568  0.0   0.1+
    130401 C73  0.4-  0.3+    130408 673  0.5+  0.3+
    130401 C73  0.5-  0.7+    130408 673  0.3+  0.2+
    
    Ephemeris:
    2013 EO126               a,e,i = 2.29, 0.79, 3                   q = 0.4912
    Date    TT    R. A. (2000) Decl.     Delta      r     Elong.  Phase     V
    2013 11 29    06 41 15.5 +18 53 26   1.5965  2.4809   146.7    12.6    23.6
    ...
    2013 12 14    06 16 22.5 +19 08 50   1.6310  2.6005   167.4     4.8    23.4
    ...
    2013 12 22    06 02 49.2 +19 15 51   1.6795  2.6615   175.8     1.6    23.4
    ...
    2013 12 28    05 53 11.1 +19 20 18   1.7301  2.7061   171.2     3.2    23.6
    2013 12 29    05 51 38.9 +19 20 59   1.7397  2.7135   169.9     3.6    23.6
    2013 12 30    05 50 08.2 +19 21 39   1.7497  2.7208   168.7     4.1    23.7
    ...
    2014 01 05    05 41 36.4 +19 25 29   1.8161  2.7641   160.9     6.7    23.9
    ...
    2014 01 13    05 31 56.1 +19 30 27   1.9217  2.8204   150.6     9.8    24.2
    ...
    2014 01 28    05 19 37.7 +19 41 44   2.1634  2.9215   132.6    14.4    24.7
    
    A. U. Tomatic                (C) Copyright 2013 MPC           M.P.E.C. 2013-Y56
    

    Read MPEC 2013-Y55 Read MPEC 2013-Y57


    MPEC number:

    Enter an MPEC number in one of the following forms:

    • 1997-B01 (the full form)
    • J97B01 (the packed version of the full form)
    • B01 (the abbreviated form)